Weather History for Whidbey Island, WA

Change the Weather History Date:

Monday, February 18, 2013

  Actual Average Record
Temperature  
Mean Temperature 42 °F -  
Max Temperature 46 °F 47 °F 52 °F (1998)
Min Temperature 37 °F 33 °F 21 °F (2006)
Degree Days  
Heating Degree Days 24    
Moisture  
Dew Point 34 °F    
Average Humidity 80    
Maximum Humidity 87    
Minimum Humidity 65    
Precipitation  
Precipitation 0.01 in - - ()
Sea Level Pressure  
Sea Level Pressure 29.95 in    
Wind  
Wind Speed 7 mph (ESE)    
Max Wind Speed 20 mph    
Max Gust Speed 24 mph    
Visibility 10 miles    
Events Rain    
Averages and records for this station are not official NWS values.
T = Trace of Precipitation, MM = Missing Value Source: NWS Daily Summary

Daily Weather History Graph

Daily Weather History Graph

Search for Another Location

Airport:

Trip Planner

Search our weather history database for the weather conditions in past years. The results will help you decide how hot, cold, wet, or windy it might be!

Date:

Astronomy

Feb. 18, 2013 Rise Set
Actual Time 7:11 AM PST 5:37 PM PST
Civil Twilight 6:39 AM PST 6:09 PM PST
Nautical Twilight 6:03 AM PST 6:46 PM PST
Astronomical Twilight 5:27 AM PST 7:22 PM PST
Moon 11:13 AM PST (2/18) 2:09 AM PST (2/18)
Length of Visible Light 11h 30m
Length of Day
10h 26m
First Quarter, 59% of the Moon is Illuminated
Feb 18
First Quarter
Feb 25
Full
Mar 4
Last Quarter
Mar 11
New
Mar 19
First Quarter

Hourly Weather History & Observations

Time (PST) Temp. Windchill Dew Point Humidity Pressure Visibility Wind Dir Wind Speed Gust Speed Precip Events Conditions
12:56 AM 37.9 °F 33.5 °F 34.0 °F 86% 30.11 in 10.0 mi ESE 5.8 mph - N/A   Overcast
1:37 AM 37.4 °F 32.8 °F 33.8 °F 87% 30.08 in 10.0 mi ESE 5.8 mph - N/A   Overcast
1:56 AM 37.9 °F - 34.0 °F 86% 30.10 in 10.0 mi Calm Calm - N/A   Mostly Cloudy
2:03 AM 37.4 °F 34.9 °F 33.8 °F 87% 30.08 in 10.0 mi ESE 3.5 mph - N/A   Mostly Cloudy
2:56 AM 39.9 °F 37.8 °F 34.0 °F 79% 30.07 in 10.0 mi East 3.5 mph - N/A   Scattered Clouds
3:56 AM 39.0 °F 34.0 °F 34.0 °F 82% 30.05 in 10.0 mi East 6.9 mph - N/A   Overcast
4:56 AM 37.9 °F 34.4 °F 33.1 °F 83% 30.04 in 10.0 mi ESE 4.6 mph - N/A   Overcast
5:03 AM 37.4 °F 33.8 °F 33.8 °F 87% 30.03 in 10.0 mi ESE 4.6 mph - N/A   Overcast
5:17 AM 37.4 °F 33.8 °F 33.8 °F 87% 30.02 in 10.0 mi East 4.6 mph - N/A   Overcast
5:26 AM 37.4 °F 33.8 °F 33.8 °F 87% 30.02 in 10.0 mi East 4.6 mph - N/A   Overcast
5:46 AM 37.4 °F 32.8 °F 33.8 °F 87% 30.01 in 10.0 mi East 5.8 mph - N/A   Overcast
5:56 AM 37.9 °F 34.4 °F 34.0 °F 86% 30.02 in 10.0 mi East 4.6 mph - N/A   Overcast
6:19 AM 37.4 °F 33.8 °F 33.8 °F 87% 30.01 in 10.0 mi SE 4.6 mph - 0.00 in Rain Light Rain
6:32 AM 37.4 °F 33.8 °F 33.8 °F 87% 30.00 in 7.0 mi SE 4.6 mph - 0.01 in Rain Light Rain
6:56 AM 37.9 °F 35.5 °F 34.0 °F 86% 30.01 in 10.0 mi ESE 3.5 mph - 0.01 in   Overcast
7:56 AM 37.9 °F 34.4 °F 34.0 °F 86% 30.01 in 10.0 mi ESE 4.6 mph - N/A   Overcast
8:56 AM 39.9 °F 34.5 °F 35.1 °F 83% 29.99 in 10.0 mi East 8.1 mph - N/A   Overcast
9:56 AM 41.0 °F 35.8 °F 35.1 °F 79% 29.99 in 10.0 mi ESE 8.1 mph - N/A   Overcast
10:33 AM 41.0 °F 37.1 °F 35.6 °F 81% 29.96 in 10.0 mi ESE 5.8 mph - N/A   Overcast
10:42 AM 41.0 °F 35.8 °F 35.6 °F 81% 29.96 in 10.0 mi ESE 8.1 mph - N/A   Overcast
10:56 AM 41.0 °F 35.2 °F 35.1 °F 79% 29.97 in 10.0 mi ESE 9.2 mph - N/A   Overcast
11:52 AM 42.8 °F 36.2 °F 35.6 °F 76% 29.94 in 10.0 mi SE 12.7 mph - N/A   Mostly Cloudy
11:56 AM 43.0 °F 36.4 °F 36.0 °F 76% 29.95 in 10.0 mi SE 12.7 mph - N/A   Mostly Cloudy
12:56 PM 44.1 °F 38.1 °F 36.0 °F 73% 29.92 in 10.0 mi ESE 11.5 mph - N/A   Overcast
1:38 PM 44.6 °F 38.4 °F 35.6 °F 71% 29.89 in 10.0 mi SE 12.7 mph - N/A   Overcast
1:56 PM 45.0 °F 37.9 °F 36.0 °F 71% 29.90 in 10.0 mi SE 16.1 mph - N/A   Overcast
2:56 PM 46.0 °F 38.5 °F 36.0 °F 68% 29.88 in 10.0 mi SE 19.6 mph 24.2 mph N/A   Overcast
3:56 PM 45.0 °F 39.3 °F 35.1 °F 68% 29.86 in 10.0 mi SE 11.5 mph 19.6 mph N/A   Overcast
4:56 PM 45.0 °F 39.7 °F 34.0 °F 65% 29.84 in 10.0 mi ESE 10.4 mph 20.7 mph N/A   Overcast
5:56 PM 43.0 °F 36.8 °F 34.0 °F 71% 29.82 in 10.0 mi ESE 11.5 mph 19.6 mph N/A   Scattered Clouds
6:56 PM 41.0 °F 33.9 °F 33.1 °F 73% 29.81 in 10.0 mi ESE 12.7 mph - N/A   Clear
7:56 PM 39.9 °F 32.9 °F 34.0 °F 79% 29.79 in 10.0 mi East 11.5 mph - N/A   Clear
8:56 PM 39.9 °F 32.9 °F 34.0 °F 79% 29.78 in 10.0 mi East 11.5 mph - N/A   Clear
9:56 PM 39.9 °F 33.9 °F 34.0 °F 79% 29.78 in 10.0 mi East 9.2 mph 18.4 mph N/A   Clear
10:56 PM 41.0 °F 34.7 °F 33.1 °F 73% 29.77 in 10.0 mi East 10.4 mph - N/A   Mostly Cloudy
11:56 PM 41.0 °F 36.4 °F 32.0 °F 70% 29.77 in 10.0 mi East 6.9 mph - N/A   Mostly Cloudy